Погода в Урюме

Россия / Республика Татарстан     54°46′21″N   48°45′29″E
темп.,
°C
ветер,
м/с
пор.,
м/с
влажн.,
%
обл.,
%
осадки,
мм/ч
давл.,
гПа
погр.,
м
17 мая, пн
пн1700:00+18ююз22605 0.0 101612
03:00+16ю226230 0.0 101618
06:00+19ю126240 0.0 101770
09:00+22ююз355030 0.0 1017279
12:00+26ююз37416 0.0 1017549
15:00+28юз36362 0.0 1016550
18:00+26юз11526 0.0 101611
21:00+18зсз23625 0.0 101760
18 мая, вт
вт1800:00+18св22565 0.0 101711
03:00+16юв11675 0.0 101811
06:00+19св116819 0.0 101859
09:00+24всв23555 0.0 1018393
12:00+27св33455 0.0 1017861
15:00+27ссв32475 0.0 1017785
18:00+23ссв48655 0.0 1017173
21:00+17св337435 0.6 101744
19 мая, ср
ср1900:00+17в4117143 0.0 1018255
03:00+15всв38765 0.0 1018166
06:00+17в49705 0.0 1018256
09:00+21в68526 0.0 1018698
12:00+24в57390 0.0 10181217
15:00+25вюв57350 0.0 10171484
18:00+22в49520 0.0 1017241
21:00+19в413630 0.0 1017255
20 мая, чт
чт2000:00+17вюв514640 0.0 1017311
03:00+15вюв412690 0.0 1018324
06:00+16вюв513685 0.0 1018398
09:00+19юв610531 0.0 1018693
12:00+22юв69425 0.0 10181374
15:00+23юв69385 0.0 10171624
18:00+20юв510510 0.0 1016406
21:00+17вюв41356100 0.0 1017241
21 мая, пт
пт2100:00+14юв31064100 0.0 1017174
03:00+13вюв3365100 0.0 101747
06:00+15юв2665100 0.0 1017175
09:00+20ююв58498 0.0 1017579
12:00+22ю5741100 0.0 10171385
15:00+22ю57380 0.0 10161477
18:00+20ююв495422 0.0 1016317
21:00+17ю256499 0.0 101693